Weather History for Wainwright, AK

Change the Weather History Date:

Friday, October 19, 2012

  Actual Average (PABR) Record (PABR)
Temperature  
Mean Temperature 18 °F 16 °F  
Max Temperature 23 °F 20 °F 35 °F (1961)
Min Temperature 10 °F 11 °F -15 °F (1924)
Degree Days  
Heating Degree Days 48 50  
Month to date heating degree days 839  
Since 1 July heating degree days 3379  
Cooling Degree Days 0    
Month to date cooling degree days  
Year to date cooling degree days  
Moisture  
Dew Point 15 °F    
Average Humidity 87    
Maximum Humidity 93    
Minimum Humidity 79    
Precipitation  
Precipitation 0.00 in 0.01 in 0.25 in (1925)
Month to date precipitation 0.28  
Year to date precipitation 4.05  
Snow  
Snow 0.00 in 0.30 in 3.80 in (1925)
Month to date snowfall 5.5  
Since 1 July snowfall 11.0  
Since 1 September snowfall 9.9  
Snow Depth -    
Sea Level Pressure  
Sea Level Pressure 30.29 in    
Wind  
Wind Speed 6 mph (ESE)    
Max Wind Speed 13 mph    
Max Gust Speed -    
Visibility 6 miles    
Events Fog    
T = Trace of Precipitation, MM = Missing Value Source: NWS Daily Summary

Daily Weather History Graph

Daily Weather History Graph

Search for Another Location

Airport:

Trip Planner

Search our weather history database for the weather conditions in past years. The results will help you decide how hot, cold, wet, or windy it might be!

Date:

Astronomy

Oct. 19, 2012 Rise Set
Actual Time 10:17 AM AKDT 6:30 PM AKDT
Civil Twilight 9:10 AM AKDT 7:37 PM AKDT
Nautical Twilight 7:57 AM AKDT 8:50 PM AKDT
Astronomical Twilight 6:42 AM AKDT 10:04 PM AKDT
Moon No Moon Rise No Moon Set
Length of Visible Light 10h 27m
Length of Day
8h 12m
Waxing Crescent, 25% of the Moon is Illuminated
Oct 19
Waxing Crescent
Oct 21
First Quarter
Oct 29
Full
Nov 6
Last Quarter
Nov 13
New

Hourly Weather History & Observations

Time (AKDT) Temp. Windchill Dew Point Humidity Pressure Visibility Wind Dir Wind Speed Gust Speed Precip Events Conditions
12:08 AM 14.0 °F 3.9 °F 12.2 °F 93% 30.29 in 0.8 mi East 6.9 mph - N/A   Scattered Clouds
12:14 AM 15.8 °F 6.1 °F 12.2 °F 86% 30.28 in 1.0 mi East 6.9 mph - N/A   Mist
12:23 AM 15.8 °F 7.2 °F 12.2 °F 86% 30.28 in 1.5 mi East 5.8 mph - N/A   Partly Cloudy
12:53 AM 14.0 °F 8.2 °F 12.0 °F 92% 30.29 in 1.8 mi ENE 3.5 mph - N/A   Clear
1:22 AM 19.4 °F 14.3 °F 17.6 °F 93% 30.28 in 2.5 mi NNE 3.5 mph - N/A   Clear
1:32 AM 17.6 °F 12.3 °F 15.8 °F 93% 30.28 in 1.5 mi NNE 3.5 mph - N/A   Clear
1:45 AM 19.4 °F 12.8 °F 15.8 °F 86% 30.28 in 2.0 mi NE 4.6 mph - N/A   Clear
1:51 AM 15.8 °F 7.2 °F 14.0 °F 93% 30.28 in 1.2 mi NNE 5.8 mph - N/A   Partly Cloudy
1:53 AM 16.0 °F 7.4 °F 12.9 °F 88% 30.28 in 1.2 mi NNE 5.8 mph - N/A   Partly Cloudy
2:28 AM 12.2 °F 0.7 °F 8.6 °F 85% 30.29 in 1.0 mi ESE 8.1 mph - N/A   Mist
2:46 AM 14.0 °F 2.9 °F 10.4 °F 86% 30.29 in 2.0 mi ESE 8.1 mph - N/A   Overcast
2:53 AM 17.1 °F 5.0 °F 14.0 °F 88% 30.29 in 1.0 mi ESE 10.4 mph - N/A   Mist
3:02 AM 15.8 °F 5.1 °F 14.0 °F 93% 30.29 in 0.5 mi ESE 8.1 mph - N/A Fog Light Freezing Fog
3:41 AM 15.8 °F 8.6 °F 12.2 °F 86% 30.28 in 1.2 mi ESE 4.6 mph - N/A   Overcast
3:53 AM 16.0 °F 8.8 °F 12.9 °F 88% 30.29 in 2.5 mi SE 4.6 mph - N/A   Overcast
4:03 AM 19.4 °F 11.5 °F 15.8 °F 86% 30.28 in 3.0 mi SE 5.8 mph - N/A   Overcast
4:19 AM 21.2 °F 12.6 °F 17.6 °F 86% 30.28 in 4.0 mi SE 6.9 mph - N/A   Overcast
4:53 AM 21.9 °F 13.4 °F 19.0 °F 89% 30.28 in 10.0 mi SE 6.9 mph - N/A   Overcast
5:15 AM 19.4 °F 11.5 °F 17.6 °F 93% 30.28 in 10.0 mi SE 5.8 mph - N/A   Overcast
5:41 AM 19.4 °F 11.5 °F 17.6 °F 93% 30.28 in 0.8 mi SE 5.8 mph - N/A   Mist
5:53 AM 19.0 °F 12.3 °F 17.1 °F 92% 30.28 in 1.0 mi SE 4.6 mph - N/A   Mist
6:08 AM 19.4 °F 10.4 °F 17.6 °F 93% 30.28 in 2.5 mi SE 6.9 mph - N/A   Overcast
6:26 AM 19.4 °F 11.5 °F 15.8 °F 86% 30.28 in 6.0 mi SE 5.8 mph - N/A   Mostly Cloudy
6:41 AM 19.4 °F 11.5 °F 15.8 °F 86% 30.28 in 10.0 mi SE 5.8 mph - N/A   Scattered Clouds
6:53 AM 19.0 °F 12.3 °F 16.0 °F 88% 30.28 in 10.0 mi SE 4.6 mph - N/A   Clear
7:53 AM 18.0 °F - 15.1 °F 88% 30.29 in 10.0 mi Calm Calm - N/A   Mostly Cloudy
8:53 AM 17.1 °F - 12.9 °F 84% 30.29 in 10.0 mi Calm Calm - N/A   Overcast
9:53 AM 21.9 °F 13.4 °F 18.0 °F 85% 30.29 in 10.0 mi SE 6.9 mph - N/A   Overcast
10:53 AM 19.0 °F 12.3 °F 15.1 °F 85% 30.29 in 10.0 mi SSE 4.6 mph - N/A   Overcast
11:53 AM 19.9 °F 14.9 °F 16.0 °F 85% 30.30 in 10.0 mi ENE 3.5 mph - N/A   Overcast
12:53 PM 23.0 °F 17.0 °F 19.0 °F 85% 30.29 in 10.0 mi ESE 4.6 mph - N/A   Overcast
1:53 PM 21.0 °F 13.4 °F 17.1 °F 85% 30.30 in 10.0 mi SSE 5.8 mph - N/A   Overcast
2:53 PM 21.0 °F 13.4 °F 17.1 °F 85% 30.30 in 10.0 mi ESE 5.8 mph - N/A   Overcast
3:53 PM 21.9 °F 12.5 °F 17.1 °F 82% 30.30 in 10.0 mi SE 8.1 mph - N/A   Clear
4:53 PM 21.0 °F 12.4 °F 17.1 °F 85% 30.30 in 10.0 mi SSE 6.9 mph - N/A   Clear
5:53 PM 19.0 °F 12.3 °F 16.0 °F 88% 30.30 in 10.0 mi South 4.6 mph - N/A   Clear
6:53 PM 18.0 °F 11.1 °F 14.0 °F 84% 30.31 in 10.0 mi ESE 4.6 mph - N/A   Clear
7:53 PM 19.0 °F 8.2 °F 15.1 °F 85% 30.32 in 10.0 mi SSE 9.2 mph - N/A   Overcast
8:53 PM 19.0 °F 6.1 °F 16.0 °F 88% 30.31 in 10.0 mi SSE 12.7 mph - N/A   Mostly Cloudy
9:53 PM 19.0 °F 7.5 °F 15.1 °F 85% 30.32 in 10.0 mi SSE 10.4 mph - N/A   Mostly Cloudy
10:53 PM 18.0 °F 7.7 °F 14.0 °F 84% 30.32 in 10.0 mi ESE 8.1 mph - N/A   Mostly Cloudy
11:20 PM 17.6 °F 5.7 °F 12.2 °F 79% 30.32 in 10.0 mi SE 10.4 mph - N/A   Scattered Clouds
11:53 PM 10.9 °F -3.4 °F 8.1 °F 88% 30.32 in 10.0 mi ESE 11.5 mph - N/A   Scattered Clouds